Asian Infinity — 3EVP3 — position and weather

sailwx.info

Track history (hours):
 
Tides and Currents Weather Stations Pressure Air Temp Water Temp Dewpoint Dewpoint Depression Visibility Wind Speed Wind Dir Waves Ship Positions

Asian Infinity

Last reported at 2014-Nov-22 02:13 UTC. Time now 2014-Nov-22 03:00 UTC.
Position N 31°09' E 122°50'.

Length 104 m; draft 5.5 m.

Type: Ship (hazmat cat A). MMSI: 351868000.

Date/timePositionNaut miles runAvg speedWind from/ knotsBaromVisibWave heightAir tempDewpointWater temp
2014-Nov-22 02:13N 31°09' E 122°50'9 9.3
2014-Nov-22 01:13N 31°02' E 122°43'6 9.3
2014-Nov-22 00:33N 30°60' E 122°36'8 8.1
2014-Nov-21 23:32N 31°00' E 122°27'8 8.2
2014-Nov-21 22:33N 31°02' E 122°18'9 8.8
2014-Nov-21 21:33N 31°03' E 122°08'1211.9
2014-Nov-21 20:33N 31°08' E 121°55'1313.5
2014-Nov-21 19:33N 31°17' E 121°44'1211.7
2014-Nov-21 18:33N 31°24' E 121°32'3 2.8
2014-Nov-21 17:33N 31°22' E 121°30'0 0.0
2014-Nov-21 16:33N 31°22' E 121°30'0 0.0
2014-Nov-21 15:33N 31°22' E 121°30'0 0.0
2014-Nov-21 14:06N 31°22' E 121°30'0 0.0
2014-Nov-21 13:33N 31°22' E 121°30'0 0.0
2014-Nov-21 12:33N 31°22' E 121°30'0 0.0
2014-Nov-21 11:33N 31°22' E 121°30'0 0.0
2014-Nov-21 10:27N 31°22' E 121°30'0 0.0
2014-Nov-21 09:21N 31°22' E 121°30'0 0.0
2014-Nov-21 08:27N 31°22' E 121°30'0 0.0
2014-Nov-21 07:33N 31°22' E 121°30'0 0.0
2014-Nov-21 06:33N 31°22' E 121°30'3 2.7
2014-Nov-21 05:33N 31°24' E 121°32'9 9.0
2014-Nov-21 04:33N 31°20' E 121°42'1211.6
2014-Nov-21 03:33N 31°11' E 121°50'1211.7
2014-Nov-21 02:33N 31°05' E 122°02'1010.4
2014-Nov-21 01:33N 31°03' E 122°14'1010.4
2014-Nov-21 00:33N 31°01' E 122°26'8 8.2
2014-Nov-20 23:33N 31°03' E 122°35'  
2014-Nov-15 11:28N 33°55' E 135°00'1011.0
2014-Nov-15 10:31N 34°05' E 134°59'1111.2
2014-Nov-15 09:33N 34°16' E 134°58'1010.4
2014-Nov-15 08:33N 34°25' E 135°04'1010.4
2014-Nov-15 07:33N 34°32' E 135°13'9 9.2
2014-Nov-15 06:33N 34°42' E 135°15'1 0.6
2014-Nov-15 05:33N 34°42' E 135°15'0 0.0
2014-Nov-15 04:33N 34°42' E 135°15'0 0.0
2014-Nov-15 03:33N 34°42' E 135°15'0 0.0
2014-Nov-15 02:33N 34°42' E 135°15'0 0.0
2014-Nov-15 01:33N 34°42' E 135°15'0 0.0
2014-Nov-15 00:33N 34°42' E 135°15'0 0.0
2014-Nov-14 23:33N 34°42' E 135°15'0 0.0
2014-Nov-14 22:27N 34°42' E 135°15'0 0.0
2014-Nov-14 21:33N 34°42' E 135°15'0 0.0
2014-Nov-14 20:27N 34°42' E 135°15'0 0.0
2014-Nov-14 19:33N 34°42' E 135°15'0 0.0
2014-Nov-14 18:33N 34°42' E 135°15'0 0.0
2014-Nov-14 17:33N 34°42' E 135°15'0 0.0
2014-Nov-14 16:33N 34°42' E 135°15'0 0.0
2014-Nov-14 15:33N 34°42' E 135°15'0 0.0
2014-Nov-14 14:33N 34°42' E 135°15'0 0.0
2014-Nov-14 12:33N 34°42' E 135°15'0 0.0
2014-Nov-14 11:33N 34°42' E 135°15'0 0.0
2014-Nov-14 10:33N 34°42' E 135°15'0 0.0
2014-Nov-14 09:33N 34°42' E 135°15'0 0.0
2014-Nov-14 08:33N 34°42' E 135°15'0 0.0
2014-Nov-14 07:33N 34°42' E 135°15'0 0.0
2014-Nov-14 06:27N 34°42' E 135°15'0 0.0
2014-Nov-14 05:33N 34°42' E 135°15'0 0.0
2014-Nov-14 04:33N 34°42' E 135°15'0 0.0
2014-Nov-14 03:33N 34°42' E 135°15'0 0.0
2014-Nov-14 02:33N 34°42' E 135°15'0 0.0
2014-Nov-14 01:33N 34°42' E 135°15'0 0.1
2014-Nov-14 00:33N 34°42' E 135°15'6 5.7
2014-Nov-13 23:33N 34°36' E 135°16'9 9.0
2014-Nov-13 22:33N 34°31' E 135°07'1010.3
2014-Nov-13 21:34N 34°36' E 134°55'1212.1
2014-Nov-13 20:33N 34°30' E 134°42'19410.0
2014-Nov-13 01:08N 34°00' E 130°50'17 9.7
2014-Nov-12 23:26N 34°02' E 130°31'  
Track history (hours):
 
Tides and Currents Weather Stations Pressure Air Temp Water Temp Dewpoint Dewpoint Depression Visibility Wind Speed Wind Dir Waves Ship Positions

Asian Infinity

Last reported at 2014-Nov-22 02:13 UTC. Time now 2014-Nov-22 03:00 UTC.
Position N 31°09' E 122°50'.

Length 104 m; draft 5.5 m.

Type: Ship (hazmat cat A). MMSI: 351868000.

Date/timePositionNaut miles runAvg speedWind from/ knotsBaromVisibWave heightAir tempDewpointWater temp
2014-Nov-22 02:13N 31°09' E 122°50'9 9.3
2014-Nov-22 01:13N 31°02' E 122°43'6 9.3
2014-Nov-22 00:33N 30°60' E 122°36'8 8.1
2014-Nov-21 23:32N 31°00' E 122°27'8 8.2
2014-Nov-21 22:33N 31°02' E 122°18'9 8.8
2014-Nov-21 21:33N 31°03' E 122°08'1211.9
2014-Nov-21 20:33N 31°08' E 121°55'1313.5
2014-Nov-21 19:33N 31°17' E 121°44'1211.7
2014-Nov-21 18:33N 31°24' E 121°32'3 2.8
2014-Nov-21 17:33N 31°22' E 121°30'0 0.0
2014-Nov-21 16:33N 31°22' E 121°30'0 0.0
2014-Nov-21 15:33N 31°22' E 121°30'0 0.0
2014-Nov-21 14:06N 31°22' E 121°30'0 0.0
2014-Nov-21 13:33N 31°22' E 121°30'0 0.0
2014-Nov-21 12:33N 31°22' E 121°30'0 0.0
2014-Nov-21 11:33N 31°22' E 121°30'0 0.0
2014-Nov-21 10:27N 31°22' E 121°30'0 0.0
2014-Nov-21 09:21N 31°22' E 121°30'0 0.0
2014-Nov-21 08:27N 31°22' E 121°30'0 0.0
2014-Nov-21 07:33N 31°22' E 121°30'0 0.0
2014-Nov-21 06:33N 31°22' E 121°30'3 2.7
2014-Nov-21 05:33N 31°24' E 121°32'9 9.0
2014-Nov-21 04:33N 31°20' E 121°42'1211.6
2014-Nov-21 03:33N 31°11' E 121°50'1211.7
2014-Nov-21 02:33N 31°05' E 122°02'1010.4
2014-Nov-21 01:33N 31°03' E 122°14'1010.4
2014-Nov-21 00:33N 31°01' E 122°26'8 8.2
2014-Nov-20 23:33N 31°03' E 122°35'  
2014-Nov-15 11:28N 33°55' E 135°00'1011.0
2014-Nov-15 10:31N 34°05' E 134°59'1111.2
2014-Nov-15 09:33N 34°16' E 134°58'1010.4
2014-Nov-15 08:33N 34°25' E 135°04'1010.4
2014-Nov-15 07:33N 34°32' E 135°13'9 9.2
2014-Nov-15 06:33N 34°42' E 135°15'1 0.6
2014-Nov-15 05:33N 34°42' E 135°15'0 0.0
2014-Nov-15 04:33N 34°42' E 135°15'0 0.0
2014-Nov-15 03:33N 34°42' E 135°15'0 0.0
2014-Nov-15 02:33N 34°42' E 135°15'0 0.0
2014-Nov-15 01:33N 34°42' E 135°15'0 0.0
2014-Nov-15 00:33N 34°42' E 135°15'0 0.0
2014-Nov-14 23:33N 34°42' E 135°15'0 0.0
2014-Nov-14 22:27N 34°42' E 135°15'0 0.0
2014-Nov-14 21:33N 34°42' E 135°15'0 0.0
2014-Nov-14 20:27N 34°42' E 135°15'0 0.0
2014-Nov-14 19:33N 34°42' E 135°15'0 0.0
2014-Nov-14 18:33N 34°42' E 135°15'0 0.0
2014-Nov-14 17:33N 34°42' E 135°15'0 0.0
2014-Nov-14 16:33N 34°42' E 135°15'0 0.0
2014-Nov-14 15:33N 34°42' E 135°15'0 0.0
2014-Nov-14 14:33N 34°42' E 135°15'0 0.0
2014-Nov-14 12:33N 34°42' E 135°15'0 0.0
2014-Nov-14 11:33N 34°42' E 135°15'0 0.0
2014-Nov-14 10:33N 34°42' E 135°15'0 0.0
2014-Nov-14 09:33N 34°42' E 135°15'0 0.0
2014-Nov-14 08:33N 34°42' E 135°15'0 0.0
2014-Nov-14 07:33N 34°42' E 135°15'0 0.0
2014-Nov-14 06:27N 34°42' E 135°15'0 0.0
2014-Nov-14 05:33N 34°42' E 135°15'0 0.0
2014-Nov-14 04:33N 34°42' E 135°15'0 0.0
2014-Nov-14 03:33N 34°42' E 135°15'0 0.0
2014-Nov-14 02:33N 34°42' E 135°15'0 0.0
2014-Nov-14 01:33N 34°42' E 135°15'0 0.1
2014-Nov-14 00:33N 34°42' E 135°15'6 5.7
2014-Nov-13 23:33N 34°36' E 135°16'9 9.0
2014-Nov-13 22:33N 34°31' E 135°07'1010.3
2014-Nov-13 21:34N 34°36' E 134°55'1212.1
2014-Nov-13 20:33N 34°30' E 134°42'19410.0
2014-Nov-13 01:08N 34°00' E 130°50'17 9.7
2014-Nov-12 23:26N 34°02' E 130°31'  

Dump ship's entire track history